This demonstration page uses our WeatherBlox Daily Observations layout. Learn more.

38.88101, -77.10428

Hourly Observations for December 27, 2018

Temp ( °F °C ) Dew Point ( °F °C ) Humidity (%) Winds ( mph kmh ) Pressure ( in mb ) Visibility ( mi km ) Precip ( " mm )
12:52 am 00:52 Clear 37 2.8 30 -1.1 76 76 SSW 5 7 30.53 1034 10 16.0934 0 0
1:52 am 01:52 Mostly Clear 37 2.8 31 -0.6 79 79 S 3 6 30.56 1035 10 16.0934 0 0
2:52 am 02:52 Partly Cloudy 36 2.2 32 0 86 86 Calm 30.56 1035 10 16.0934 0 0
3:52 am 03:52 Mostly Clear 34 1.1 30 -1.1 85 85 SW 3 6 30.55 1035 10 16.0934 0 0
4:52 am 04:52 Mostly Clear 34 1.1 29 -1.7 82 82 SW 3 6 30.55 1035 10 16.0934 0 0
5:52 am 05:52 Clear 34 1.1 29 -1.7 82 82 Calm 30.57 1035 10 16.0934 0 0
6:52 am 06:52 Mostly Clear 34 1.1 29 -1.7 82 82 Calm 30.58 1036 10 16.0934 0 0
7:52 am 07:52 Mostly Sunny 35 1.7 30 -1.1 82 82 Calm 30.6 1036 10 16.0934 0 0
8:52 am 08:52 Partly Cloudy 37 2.8 31 -0.6 79 79 NE 3 6 30.61 1037 10 16.0934 0 0
9:52 am 09:52 Mostly Cloudy 41 5 32 0 70 70 Calm 30.61 1037 10 16.0934 0 0
10:52 am 10:52 Mostly Cloudy 45 7.2 30 -1.1 56 56 S 6 9 30.59 1036 10 16.0934 0 0
11:52 am 11:52 Mostly Cloudy 48 8.9 31 -0.6 52 52 S 8 13 30.55 1035 10 16.0934 0 0
12:52 pm 12:52 Cloudy 50 10 30 -1.1 46 46 S 7 11 30.52 1034 10 16.0934 0 0
1:52 pm 13:52 Mostly Cloudy 52 11.1 30 -1.1 43 43 S 9 15 30.5 1033 10 16.0934 0 0
2:52 pm 14:52 Mostly Cloudy 52 11.1 31 -0.6 45 45 SSE 7 11 30.49 1033 10 16.0934 0 0
3:52 pm 15:52 Cloudy 51 10.6 31 -0.6 46 46 SSE 9 15 30.5 1033 10 16.0934 0 0
4:52 pm 16:52 Cloudy 49 9.4 31 -0.6 50 50 SE 9 15 30.48 1032 10 16.0934 0 0
5:52 pm 17:52 Cloudy 49 9.4 32 0 52 52 SSE 9 15 30.47 1032 10 16.0934 0 0
6:52 pm 18:52 Cloudy 49 9.4 34 1.1 56 56 SSE 9 15 30.48 1032 10 16.0934 0 0
7:52 pm 19:52 Cloudy 48 8.9 36 2.2 63 63 SSE 6 9 30.46 1032 10 16.0934 0 0
8:52 pm 20:52 Cloudy 48 8.9 36 2.2 63 63 SE 8 13 30.44 1031 10 16.0934 0 0
9:19 pm 21:19 Cloudy 47 8.3 37 2.8 69 69 SE 8 13 30.42 1030 10 16.0934 0 0
9:52 pm 21:52 Cloudy with Light Rain 47 8.3 38 3.3 71 71 SE 7 11 30.41 1030 10 16.0934 0 0.0254
10:52 pm 22:52 Cloudy with Light Rain 46 7.8 39 3.9 77 77 ESE 7 11 30.38 1029 10 16.0934 0 0.0254
11:52 pm 23:52 Cloudy with Light Rain 44 6.7 41 5 89 89 E 3 6 30.34 1028 4 6.43736 0 0.0254

Powered by AerisWeather